TimeCDT,TemperatureF,Dew PointF,Humidity,Sea Level PressureIn,VisibilityMPH,Wind Direction,Wind SpeedMPH,Gust SpeedMPH,PrecipitationIn,Events,Conditions,WindDirDegrees,DateUTC
12:52 AM,46.9,45.0,93,29.99,10.0,Calm,Calm,-,N/A,,Clear,0,2013-09-30 05:52:00
1:52 AM,46.9,44.1,90,29.99,10.0,ENE,3.5,-,N/A,,Clear,70,2013-09-30 06:52:00
2:52 AM,48.0,44.1,86,29.97,10.0,East,3.5,-,N/A,,Clear,90,2013-09-30 07:52:00
3:52 AM,48.9,45.0,86,29.96,10.0,East,3.5,-,N/A,,Clear,80,2013-09-30 08:52:00
4:52 AM,46.0,44.1,93,29.97,10.0,Calm,Calm,-,N/A,,Clear,0,2013-09-30 09:52:00
5:52 AM,45.0,44.1,97,29.99,10.0,Calm,Calm,-,N/A,,Clear,0,2013-09-30 10:52:00
6:52 AM,46.0,45.0,96,30.00,10.0,Calm,Calm,-,N/A,,Clear,0,2013-09-30 11:52:00
7:41 AM,48.2,46.4,93,29.99,1.0,East,5.8,-,N/A,,Clear,100,2013-09-30 12:41:00
7:50 AM,48.2,48.2,100,29.99,0.5,ESE,6.9,-,N/A,,Mist,110,2013-09-30 12:50:00
7:52 AM,48.9,48.0,97,30.00,0.5,ESE,6.9,-,N/A,Fog,Fog,110,2013-09-30 12:52:00
8:34 AM,50.0,50.0,100,30.00,0.2,ESE,3.5,-,N/A,Fog,Fog,110,2013-09-30 13:34:00
8:52 AM,52.0,52.0,100,30.00,0.5,SE,4.6,-,N/A,Fog,Fog,130,2013-09-30 13:52:00
9:03 AM,53.6,53.6,100,29.99,1.8,ESE,3.5,-,N/A,,Mostly Cloudy,120,2013-09-30 14:03:00
9:05 AM,53.6,53.6,100,29.99,4.0,ESE,3.5,-,N/A,,Mostly Cloudy,110,2013-09-30 14:05:00
9:15 AM,55.4,53.6,94,29.99,9.0,ESE,4.6,-,N/A,,Scattered Clouds,120,2013-09-30 14:15:00
9:52 AM,61.0,53.1,75,30.00,10.0,Calm,Calm,-,N/A,,Clear,0,2013-09-30 14:52:00
10:52 AM,68.0,52.0,56,29.99,10.0,Calm,Calm,-,N/A,,Clear,0,2013-09-30 15:52:00
11:52 AM,72.0,54.0,53,29.97,10.0,SSE,11.5,16.1,N/A,,Clear,150,2013-09-30 16:52:00
12:52 PM,73.9,52.0,46,29.96,10.0,SSE,8.1,-,N/A,,Clear,150,2013-09-30 17:52:00
1:52 PM,75.9,52.0,43,29.93,10.0,South,12.7,18.4,N/A,,Clear,180,2013-09-30 18:52:00
2:52 PM,77.0,52.0,42,29.91,10.0,South,8.1,16.1,N/A,,Clear,170,2013-09-30 19:52:00
3:52 PM,75.9,55.0,48,29.90,10.0,South,10.4,-,N/A,,Clear,190,2013-09-30 20:52:00
4:52 PM,73.9,55.9,53,29.90,10.0,SSW,12.7,18.4,N/A,,Clear,200,2013-09-30 21:52:00
5:52 PM,72.0,59.0,64,29.91,10.0,South,8.1,-,N/A,,Clear,180,2013-09-30 22:52:00
6:52 PM,68.0,59.0,73,29.91,10.0,South,3.5,-,N/A,,Clear,170,2013-09-30 23:52:00
7:52 PM,62.1,57.9,86,29.92,10.0,South,5.8,-,N/A,,Clear,170,2013-10-01 00:52:00
8:52 PM,64.0,59.0,84,29.92,10.0,South,8.1,-,N/A,,Clear,170,2013-10-01 01:52:00
9:52 PM,64.9,61.0,87,29.91,10.0,South,8.1,-,N/A,,Clear,170,2013-10-01 02:52:00
10:52 PM,64.9,62.1,90,29.92,10.0,South,9.2,-,N/A,,Clear,170,2013-10-01 03:52:00
11:52 PM,64.0,62.1,93,29.92,10.0,South,11.5,-,N/A,,Clear,180,2013-10-01 04:52:00